FW2661 Weather Reports


time (UTC)temp
F
wind
direction
speed
knots
gust
knots
rain 1hr
in
rain 24hr
in
rain mn
in
humidity
%
barometer
mb
20260504045050 58 0.0 0.0 0.00 0.00 0.00 57 1004.7
20260504044044 58 0.0 0.0 0.00 0.00 0.00 56 1004.7
20260504041946 58 0.0 0.0 0.00 0.00 0.00 56 1004.7
20260504035810 59 0.0 0.0 0.00 0.00 0.00 56 1004.9
20260504034802 59 0.0 0.0 0.00 0.00 0.00 55 1005.0
20260504033811 59 0.0 0.0 0.00 0.00 0.00 55 1005.1
20260504032826 59 0.0 0.0 0.00 0.00 0.00 55 1005.3
20260504031813 59 0.0 0.0 0.00 0.00 0.00 55 1005.3
20260504025713 59 0.0 0.0 0.00 0.00 0.00 55 1005.4
20260504023546 58 0.0 0.0 0.00 0.00 0.00 55 1005.4
20260504021345 59 0.0 0.0 0.00 0.00 0.00 54 1005.2
20260504020345 60 0.0 0.0 0.00 0.00 0.00 52 1005.2
20260504015329 61 0.0 0.0 0.00 0.00 0.00 51 1005.2
20260504014323 61 0.0 0.0 0.00 0.00 0.00 49 1005.1
20260504013319 62 0.0 0.0 0.00 0.00 0.00 47 1005.0
20260504012321 63 0.0 0.0 0.00 0.00 0.00 46 1004.9
20260504011311 63 0.0 0.0 0.00 0.00 0.00 45 1004.7
20260504004006 66 0.0 0.0 0.00 0.00 0.00 40 1004.8
20260504003025 66 0.0 0.0 0.00 0.00 0.00 39 1004.8
20260504000831 67 0.0 0.0 0.00 0.00 0.00 37 1004.7
20260503235823 67 0.0 0.0 0.00 0.00 0.00 36 1004.7
20260503233719 67 0.0 0.0 0.00 0.00 0.00 36 1004.7
20260503232718 67 0.0 0.0 0.00 0.00 0.00 38 1004.7
20260503231646 67 0.0 0.0 0.00 0.00 0.00 37 1004.8
20260503230646 68 0.0 0.0 0.00 0.00 0.00 36 1005.0
20260503225632 68 0.0 0.0 0.00 0.00 0.00 35 1005.0
20260503223529 68 0.0 0.0 0.00 0.00 0.00 35 1005.2
20260503221408 68 0.0 0.0 0.00 0.00 0.00 35 1005.5
20260503220400 68 0.0 0.0 0.00 0.00 0.00 34 1005.6
20260503215354 68 0.0 0.0 0.00 0.00 0.00 34 1005.7
20260503214410 68 0.0 0.0 0.00 0.00 0.00 35 1005.8
20260503213404 68 0.0 0.0 0.00 0.00 0.00 34 1005.9
20260503210112 67 0.0 0.0 0.00 0.00 0.00 33 1006.3
20260503205042 67 0.0 0.0 0.00 0.00 0.00 37 1006.5
20260503204037 66 0.0 0.0 0.00 0.00 0.00 37 1006.8
20260503203102 66 0.0 0.0 0.00 0.00 0.00 39 1006.9
20260503202046 65 0.0 0.0 0.00 0.00 0.00 39 1007.3
20260503201029 65 0.0 0.0 0.00 0.00 0.00 42 1007.6
20260503194915 63 0.0 0.0 0.00 0.00 0.00 42 1008.0
20260503193912 62 0.0 0.0 0.00 0.00 0.00 42 1008.1
20260503192913 62 0.0 0.0 0.00 0.00 0.00 40 1008.1
20260503191916 62 0.0 0.0 0.00 0.00 0.00 41 1008.2
20260503190930 63 0.0 0.0 0.00 0.00 0.00 39 1008.3
20260503185903 62 0.0 0.0 0.00 0.00 0.00 42 1008.4
20260503184911 60 0.0 0.0 0.00 0.00 0.00 43 1008.5
20260503183849 59 0.0 0.0 0.00 0.00 0.00 47 1008.8
20260503182904 58 0.0 0.0 0.00 0.00 0.00 46 1009.0
20260503180651 59 0.0 0.0 0.00 0.00 0.00 48 1009.5
20260503175701 58 0.0 0.0 0.00 0.00 0.00 50 1009.8
20260503174632 58 0.0 0.0 0.00 0.00 0.00 50 1010.1
20260503173618 57 0.0 0.0 0.00 0.00 0.00 51 1010.3
20260503172552 57 0.0 0.0 0.00 0.00 0.00 55 1010.9
20260503171609 55 0.0 0.0 0.00 0.00 0.00 57 1011.0
20260503170622 54 0.0 0.0 0.00 0.00 0.00 59 1011.1
20260503150546 54 0.0 0.0 0.00 0.00 0.00 52 1012.5
20260503130549 51 0.0 0.0 0.00 0.00 0.00 49 1013.5
20260503120204 49 0.0 0.0 0.00 0.00 0.00 52 1013.6
20260503081441 46 0.0 0.0 0.00 0.00 0.00 48 1014.3
20260503054737 45 0.0 0.0 0.00 0.00 0.00 54 1015.3
20260503053756 45 0.0 0.0 0.00 0.00 0.00 54 1015.4
20260503051548 45 0.0 0.0 0.00 0.00 0.00 55 1015.6
20260503050542 45 0.0 0.0 0.00 0.00 0.00 55 1015.7